Flag for India Weather past 2 weeks in Kolkata, West Bengal, India

70 °F


Feels Like: 70 °F
Forecast: 65 / 85 °F
Wind: No wind

Location: Calcutta / Dum Dum

Current Time: Nov 26, 2015 at 9:53:30 PM

Latest Report: Nov 26, 2015 at 9:30 PM

Visibility: 2 mi

Pressure: 29.86 "Hg

Humidity: 83%

Dew point: 64 °F

Location of KolkataLocation

Historic Weather in Kolkata — Graph


Kolkata temperature yesterday

Maximum temperature yesterday: 84 °F (at 12:30 PM)
Minimum temperature yesterday: 68 °F (at 5:30 AM)
Average temperature yesterday: 75 °F

Past Weeks' High & Low Weather Summary

High90 °F (Nov 12, 2:20 PM)100% (Nov 20, 6:00 AM)30.01 "Hg (Nov 20, 6:00 AM)
Low64 °F (Nov 23, 4:30 AM)31% (Nov 14, 1:50 PM)29.77 "Hg (Nov 14, 2:50 PM)
Average77 °F70%29.90 "Hg
* Reported Nov 11 8:50 PM — Nov 26 8:30 PM, Kolkata, Weather by CustomWeather, © 2015

Note: Actual official high and low records may vary slightly from our data, if they occured in-between our weather recording intervals... More about our weather records


Kolkata weather history for previous 24 hours

Time TempWeatherWind HumidityBarometerVisibility
8:30 PM
Thu, Nov 26
72 °FHaze.No wind78%29.86 "Hg1 mi
8:00 PM73 °FHaze.No wind69%29.86 "Hg1 mi
7:30 PM73 °FHaze.No wind69%29.86 "Hg1 mi
7:00 PM75 °FPassing clouds.No wind65%29.86 "Hg1 mi
6:30 PM75 °FHaze.No wind57%29.83 "Hg2 mi
6:00 PM77 °FHaze.No wind54%29.83 "Hg2 mi
5:30 PM77 °FHaze.No wind51%29.83 "Hg2 mi
5:00 PM79 °FHaze.5 mph48%29.80 "Hg2 mi
4:30 PM81 °FHaze.5 mph45%29.80 "Hg2 mi
4:00 PM82 °FScattered clouds.7 mph42%29.80 "Hg2 mi
3:30 PM82 °FScattered clouds.7 mph42%29.80 "Hg2 mi
3:00 PM84 °FScattered clouds.9 mph40%29.83 "Hg2 mi
2:30 PM84 °FScattered clouds.8 mph43%29.83 "Hg2 mi
2:00 PM84 °FScattered clouds.9 mph43%29.83 "Hg2 mi
1:30 PM84 °FScattered clouds.9 mph43%29.86 "Hg2 mi
1:00 PM84 °FHaze.6 mph43%29.86 "Hg2 mi
12:30 PM84 °FHaze.6 mph45%29.86 "Hg2 mi
12:00 PM84 °FHaze.6 mph45%29.89 "Hg2 mi
11:30 AM82 °FHaze.6 mph48%29.92 "Hg2 mi
11:00 AM82 °FHaze.6 mph48%29.92 "Hg2 mi
10:30 AM81 °FHaze.5 mph51%29.95 "Hg2 mi
10:00 AM79 °FHaze.3 mph58%29.95 "Hg2 mi
9:30 AM77 °FHaze.3 mph61%29.95 "Hg2 mi
8:30 AM75 °FHaze.No wind65%29.95 "Hg2 mi
8:00 AM73 °FHaze.3 mph74%29.95 "Hg2 mi
7:30 AM70 °FFog.No wind88%29.95 "Hg1 mi
7:00 AM68 °FFog.No wind88%29.92 "Hg1 mi
6:30 AM68 °FFog.No wind88%29.92 "Hg1 mi
6:00 AM68 °FFog.No wind88%29.92 "Hg1 mi
5:30 AM68 °FFog.No wind88%29.92 "Hg1 mi
5:00 AM68 °FFog.No wind88%29.89 "Hg1 mi
4:30 AM68 °FFog.No wind88%29.89 "Hg1 mi
4:00 AM68 °FFog.No wind88%29.89 "Hg1 mi
3:30 AM68 °FFog.No wind88%29.89 "Hg1 mi
3:00 AM68 °FFog.No wind88%29.89 "Hg1 mi
2:30 AM68 °FFog.No wind88%29.89 "Hg1 mi
2:00 AM68 °FFog.No wind88%29.89 "Hg1 mi
1:30 AM68 °FFog.No wind88%29.89 "Hg1 mi
1:00 AM70 °FHaze.No wind83%29.92 "Hg1 mi
12:30 AM70 °FHaze.No wind83%29.95 "Hg1 mi
12:00 AM70 °FHaze.No wind78%29.92 "Hg1 mi
11:30 PM
Wed, Nov 25
70 °FHaze.No wind78%29.92 "Hg2 mi
11:00 PM72 °FHaze.No wind78%29.92 "Hg2 mi
10:30 PM72 °FHaze.No wind73%29.92 "Hg2 mi
10:00 PM72 °FHaze.No wind73%29.92 "Hg2 mi
9:30 PM72 °FHaze.No wind73%29.92 "Hg2 mi
9:00 PM73 °FHaze.No wind69%29.89 "Hg2 mi
Weather by CustomWeather, © 2015

See weather overviewHow to use our weather pages